N6WT Weather Reports


time (UTC)temp
C
wind
direction
speed
KPH
gust
KPH
rain 1hr
cm
rain 24hr
cm
rain mn
cm
humidity
%
barometer
mb
20260507095555 8 261 0.0 0.0 0.00 0.00 0.00 93 1017.5
20260507095054 8 261 0.0 0.0 0.00 0.00 0.00 93 1017.5
20260507094600 8 261 0.0 0.0 0.00 0.00 0.00 94 1017.5
20260507094057 8 261 0.0 0.0 0.00 0.00 0.00 93 1017.6
20260507093553 8 261 0.0 0.0 0.00 0.00 0.00 93 1017.7
20260507093054 8 261 0.0 0.0 0.00 0.00 0.00 93 1017.8
20260507092554 8 261 0.0 0.0 0.00 0.00 0.00 93 1017.8
20260507092054 8 261 0.0 0.0 0.00 0.00 0.00 93 1017.8
20260507091552 8 261 0.0 0.0 0.00 0.00 0.00 93 1017.9
20260507091050 8 261 0.0 0.0 0.00 0.00 0.00 92 1018.1
20260507090551 8 261 0.0 0.0 0.00 0.00 0.00 92 1018.1
20260507090048 8 261 0.0 0.0 0.00 0.00 0.00 93 1018.1
20260507085547 8 261 0.0 0.0 0.00 0.00 0.00 92 1018.2
20260507085047 8 261 0.0 0.0 0.00 0.00 0.00 93 1018.2
20260507084547 9 261 0.0 0.0 0.00 0.00 0.00 92 1018.2
20260507084045 9 261 0.0 0.0 0.00 0.00 0.00 92 1018.3
20260507083545 9 261 0.0 0.0 0.00 0.00 0.00 92 1018.2
20260507083044 9 261 0.0 0.0 0.00 0.00 0.00 92 1018.3
20260507082544 9 261 0.0 0.0 0.00 0.00 0.00 92 1018.3
20260507082046 9 261 0.0 0.0 0.00 0.00 0.00 92 1018.4
20260507081543 9 261 0.0 0.0 0.00 0.00 0.00 92 1018.4
20260507081045 9 261 0.0 0.0 0.00 0.00 0.00 92 1018.5
20260507080540 9 261 0.0 0.0 0.00 0.00 0.00 92 1018.6
20260507080040 9 261 0.0 0.0 0.00 0.00 0.00 91 1018.6
20260507075539 9 261 0.0 0.0 0.00 0.00 0.00 91 1018.7
20260507075038 10 261 0.0 0.0 0.00 0.00 0.00 90 1018.7
20260507074538 10 261 0.0 0.0 0.00 0.00 0.00 91 1018.7
20260507074037 10 261 0.0 0.0 0.00 0.00 0.00 91 1018.7
20260507073535 10 261 0.0 0.0 0.00 0.00 0.00 91 1018.8
20260507073035 10 261 0.0 0.0 0.00 0.00 0.00 91 1018.8
20260507072534 10 261 0.0 0.0 0.00 0.00 0.00 91 1018.8
20260507072033 10 261 0.0 0.0 0.00 0.00 0.00 91 1018.7
20260507071536 10 261 0.0 0.0 0.00 0.00 0.00 91 1018.7
20260507071033 10 261 0.0 0.0 0.00 0.00 0.00 91 1018.8
20260507070533 10 261 0.0 0.0 0.00 0.00 0.00 90 1018.8
20260507070042 10 261 0.0 0.0 0.00 0.00 0.00 90 1018.8
20260507065535 10 261 0.0 0.0 0.00 0.00 0.00 90 1018.8
20260507065031 10 261 0.0 0.0 0.00 0.00 0.00 90 1018.8
20260507064535 10 261 0.0 0.0 0.00 0.00 0.00 90 1018.8
20260507064032 11 261 0.0 0.0 0.00 0.00 0.00 90 1018.8
20260507063531 11 261 0.0 0.0 0.00 0.00 0.00 90 1018.8
20260507063034 11 261 0.0 0.0 0.00 0.00 0.00 90 1018.7
20260507062533 11 261 0.0 0.0 0.00 0.00 0.00 90 1018.7
20260507062030 11 261 0.0 0.0 0.00 0.00 0.00 89 1018.7
20260507061530 11 261 0.0 0.0 0.00 0.00 0.00 89 1018.7
20260507061029 11 261 0.0 0.0 0.00 0.00 0.00 89 1018.6
20260507060529 11 261 0.0 0.0 0.00 0.00 0.00 89 1018.7
20260507060030 11 261 0.0 0.0 0.00 0.00 0.00 89 1018.7
20260507055529 11 261 0.0 0.0 0.00 0.00 0.00 89 1018.6
20260507055028 11 261 0.0 0.0 0.00 0.00 0.00 89 1018.7
20260507054528 11 261 0.0 0.0 0.00 0.00 0.00 88 1018.7
20260507054028 11 261 0.0 0.0 0.00 0.00 0.00 88 1018.7
20260507053528 11 261 0.0 0.0 0.00 0.00 0.00 87 1018.8
20260507053028 11 261 0.0 0.0 0.00 0.00 0.00 87 1018.8
20260507052527 11 261 0.0 0.0 0.00 0.00 0.00 87 1018.8
20260507052028 11 261 0.0 0.0 0.00 0.00 0.00 86 1018.8
20260507051528 11 261 0.0 0.0 0.00 0.00 0.00 86 1018.8
20260507051027 12 298 0.0 0.0 0.00 0.00 0.00 86 1018.7
20260507050527 12 298 0.0 0.0 0.00 0.00 0.00 86 1018.7
20260507050030 12 298 0.0 0.0 0.00 0.00 0.00 85 1018.7
20260507045527 12 298 0.0 0.0 0.00 0.00 0.00 85 1018.7
20260507045027 12 298 0.0 0.0 0.00 0.00 0.00 85 1018.6
20260507044526 12 298 0.0 0.0 0.00 0.00 0.00 84 1018.6
20260507044029 12 298 0.0 0.0 0.00 0.00 0.00 83 1018.6
20260507043526 12 298 0.0 0.0 0.00 0.00 0.00 83 1018.6
20260507043026 13 298 0.0 3.2 0.00 0.00 0.00 82 1018.5
20260507042527 13 298 0.0 3.2 0.00 0.00 0.00 82 1018.5
20260507042028 13 298 0.0 3.2 0.00 0.00 0.00 82 1018.5
20260507041526 13 325 0.0 1.6 0.00 0.00 0.00 81 1018.5
20260507041025 13 325 0.0 1.6 0.00 0.00 0.00 80 1018.4
20260507040527 13 325 0.0 1.6 0.00 0.00 0.00 80 1018.4
20260507040026 13 325 0.0 1.6 0.00 0.00 0.00 79 1018.4
20260507035526 13 325 0.0 3.2 0.00 0.00 0.00 79 1018.4
20260507035026 14 311 0.0 3.2 0.00 0.00 0.00 79 1018.3
20260507034525 14 35 0.0 6.4 0.00 0.00 0.00 79 1018.2
20260507034027 14 74 0.0 6.4 0.00 0.00 0.00 78 1018.1
20260507033524 14 246 0.0 8.0 0.00 0.00 0.00 78 1018.1
20260507033031 14 224 3.2 8.0 0.00 0.00 0.00 77 1018.1
20260507032523 15 306 1.6 4.8 0.00 0.00 0.00 76 1018.1
20260507032029 15 311 1.6 4.8 0.00 0.00 0.00 75 1018.0
20260507031532 15 83 0.0 4.8 0.00 0.00 0.00 75 1018.0
20260507031024 15 304 0.0 12.9 0.00 0.00 0.00 74 1017.9
20260507030524 15 245 3.2 12.9 0.00 0.00 0.00 73 1017.9
20260507030024 15 223 1.6 4.8 0.00 0.00 0.00 72 1017.7
20260507025522 16 261 0.0 3.2 0.00 0.00 0.00 71 1017.7
20260507025025 16 5 0.0 3.2 0.00 0.00 0.00 70 1017.7
20260507024524 16 99 0.0 6.4 0.00 0.00 0.00 70 1017.6
20260507024022 16 132 1.6 6.4 0.00 0.00 0.00 69 1017.6
20260507023522 16 48 0.0 6.4 0.00 0.00 0.00 68 1017.5
20260507023022 16 349 1.6 6.4 0.00 0.00 0.00 68 1017.5
20260507022522 17 28 0.0 8.0 0.00 0.00 0.00 67 1017.4
20260507022022 17 236 1.6 8.0 0.00 0.00 0.00 67 1017.4
20260507021522 17 14 0.0 6.4 0.00 0.00 0.00 66 1017.3
20260507021022 17 32 1.6 6.4 0.00 0.00 0.00 66 1017.3
20260507020522 17 192 0.0 11.3 0.00 0.00 0.00 66 1017.3
20260507020025 17 333 1.6 11.3 0.00 0.00 0.00 65 1017.3
20260507015521 17 115 1.6 4.8 0.00 0.00 0.00 65 1017.3
20260507015021 17 38 0.0 6.4 0.00 0.00 0.00 64 1017.4
20260507014522 17 355 1.6 6.4 0.00 0.00 0.00 64 1017.3
20260507014019 17 192 1.6 19.3 0.00 0.00 0.00 64 1017.4
20260507013519 17 337 4.8 12.9 0.00 0.00 0.00 64 1017.4
20260507013023 18 240 4.8 11.3 0.00 0.00 0.00 62 1017.4
20260507012521 18 307 1.6 9.7 0.00 0.00 0.00 62 1017.3
20260507012019 18 178 1.6 9.7 0.00 0.00 0.00 61 1017.4
20260507011529 19 296 3.2 17.7 0.00 0.00 0.00 60 1017.4
20260507011019 20 127 1.6 17.7 0.00 0.00 0.00 58 1017.4
20260507010519 20 313 4.8 14.5 0.00 0.00 0.00 58 1017.2
20260507010020 20 148 1.6 16.1 0.00 0.00 0.00 58 1017.2
20260507005518 20 291 8.0 16.1 0.00 0.00 0.00 58 1017.2
20260507005023 20 132 1.6 19.3 0.00 0.00 0.00 58 1017.1
20260507004518 20 311 6.4 19.3 0.00 0.00 0.00 58 1017.1
20260507004018 21 317 6.4 19.3 0.00 0.00 0.00 58 1017.0
20260507003518 21 309 8.0 19.3 0.00 0.00 0.00 56 1017.0
20260507003017 21 32 3.2 20.9 0.00 0.00 0.00 57 1017.0
20260507002518 21 302 8.0 20.9 0.00 0.00 0.00 57 1016.9
20260507002017 21 321 8.0 20.9 0.00 0.00 0.00 56 1016.8
20260507001520 21 287 1.6 17.7 0.00 0.00 0.00 57 1016.9
20260507001016 21 318 6.4 19.3 0.00 0.00 0.00 57 1016.9
20260507000516 21 281 6.4 16.1 0.00 0.00 0.00 56 1016.8
20260507000016 21 281 3.2 19.3 0.00 0.00 0.00 56 1016.8
20260506235518 21 18 6.4 22.5 0.00 0.00 0.00 56 1016.8
20260506235015 22 5 8.0 17.7 0.00 0.00 0.00 55 1016.8
20260506234515 22 204 3.2 16.1 0.00 0.00 0.00 54 1016.8
20260506234015 22 92 6.4 17.7 0.00 0.00 0.00 54 1016.8
20260506233516 22 65 1.6 17.7 0.00 0.00 0.00 55 1016.8
20260506233015 22 49 3.2 12.9 0.00 0.00 0.00 57 1016.8
20260506232514 22 84 4.8 17.7 0.00 0.00 0.00 56 1016.8
20260506232014 22 154 4.8 17.7 0.00 0.00 0.00 56 1016.9
20260506231514 22 88 4.8 14.5 0.00 0.00 0.00 55 1016.8
20260506231015 22 314 1.6 11.3 0.00 0.00 0.00 57 1016.8
20260506230513 22 32 3.2 14.5 0.00 0.00 0.00 55 1016.8
20260506230013 22 346 4.8 16.1 0.00 0.00 0.00 56 1016.8
20260506225515 22 309 6.4 24.1 0.00 0.00 0.00 56 1016.8
20260506225020 22 19 3.2 24.1 0.00 0.00 0.00 55 1016.9
20260506224512 22 71 1.6 22.5 0.00 0.00 0.00 57 1016.9
20260506224011 22 297 4.8 20.9 0.00 0.00 0.00 57 1016.9
20260506223511 22 215 3.2 20.9 0.00 0.00 0.00 56 1017.0
20260506223016 22 322 6.4 17.7 0.00 0.00 0.00 55 1017.0
20260506222511 22 75 4.8 17.7 0.00 0.00 0.00 56 1017.1
20260506222010 22 36 6.4 20.9 0.00 0.00 0.00 55 1017.1
20260506221509 22 322 6.4 24.1 0.00 0.00 0.00 55 1017.1
20260506221010 22 350 12.9 24.1 0.00 0.00 0.00 55 1017.1
20260506220508 22 310 8.0 16.1 0.00 0.00 0.00 55 1017.2
20260506220008 22 217 4.8 24.1 0.00 0.00 0.00 56 1017.3
20260506215507 22 153 6.4 24.1 0.00 0.00 0.00 56 1017.3
20260506215007 22 360 8.0 27.4 0.00 0.00 0.00 55 1017.3
20260506214507 22 306 9.7 27.4 0.00 0.00 0.00 55 1017.3
20260506214008 23 200 3.2 19.3 0.00 0.00 0.00 54 1017.4
20260506213506 22 5 6.4 24.1 0.00 0.00 0.00 57 1017.4
20260506213007 22 317 14.5 24.1 0.00 0.00 0.00 55 1017.3
20260506212506 22 302 11.3 19.3 0.00 0.00 0.00 56 1017.4
20260506212008 22 259 4.8 12.9 0.00 0.00 0.00 56 1017.3
20260506211505 22 310 3.2 17.7 0.00 0.00 0.00 57 1017.4
20260506211006 22 108 8.0 24.1 0.00 0.00 0.00 56 1017.5
20260506210506 22 225 9.7 24.1 0.00 0.00 0.00 56 1017.5
20260506210012 21 233 6.4 25.7 0.00 0.00 0.00 56 1017.4
20260506205505 22 96 8.0 24.1 0.00 0.00 0.00 56 1017.6
20260506205005 22 221 11.3 30.6 0.00 0.00 0.00 56 1017.6
20260506204505 22 202 6.4 30.6 0.00 0.00 0.00 55 1017.6
20260506204005 22 123 8.0 22.5 0.00 0.00 0.00 56 1017.5
20260506203504 22 232 6.4 19.3 0.00 0.00 0.00 55 1017.6
20260506203006 22 217 6.4 24.1 0.00 0.00 0.00 55 1017.4
20260506202504 22 208 6.4 24.1 0.00 0.00 0.00 55 1017.4
20260506202004 22 205 8.0 20.9 0.00 0.00 0.00 54 1017.5
20260506201503 22 206 6.4 20.9 0.00 0.00 0.00 55 1017.6
20260506201003 22 271 9.7 17.7 0.00 0.00 0.00 54 1017.6
20260506200502 22 265 6.4 16.1 0.00 0.00 0.00 54 1017.7
20260506200002 22 244 6.4 20.9 0.00 0.00 0.00 53 1017.7
20260506195502 23 265 9.7 20.9 0.00 0.00 0.00 53 1017.7
20260506195002 22 11 4.8 24.1 0.00 0.00 0.00 54 1017.7
20260506194503 22 236 4.8 24.1 0.00 0.00 0.00 55 1017.6
20260506194100 22 308 1.6 25.7 0.00 0.00 0.00 57 1017.7
20260506193603 22 236 12.9 25.7 0.00 0.00 0.00 55 1017.8
20260506193059 22 221 9.7 24.1 0.00 0.00 0.00 54 1017.8
20260506192559 23 206 8.0 19.3 0.00 0.00 0.00 51 1017.9
20260506192100 23 84 4.8 16.1 0.00 0.00 0.00 45 1017.9
20260506191559 24 300 6.4 19.3 0.00 0.00 0.00 45 1017.9
20260506191100 24 34 8.0 19.3 0.00 0.00 0.00 45 1018.0
20260506190557 24 310 1.6 11.3 0.00 0.00 0.00 45 1018.0
20260506190101 24 332 3.2 12.9 0.00 0.00 0.00 44 1018.1
20260506185554 24 121 3.2 12.9 0.00 0.00 0.00 44 1018.1
20260506185053 23 57 3.2 12.9 0.00 0.00 0.00 46 1018.2
20260506184553 23 13 4.8 9.7 0.00 0.00 0.00 45 1018.3
20260506184052 23 255 3.2 14.5 0.00 0.00 0.00 45 1018.3
20260506183553 23 9 4.8 14.5 0.00 0.00 0.00 47 1018.4
20260506183051 23 53 3.2 14.5 0.00 0.00 0.00 46 1018.5
20260506182549 23 318 6.4 14.5 0.00 0.00 0.00 46 1018.5
20260506182048 22 57 4.8 11.3 0.00 0.00 0.00 47 1018.6
20260506181547 22 36 3.2 12.9 0.00 0.00 0.00 48 1018.6
20260506181047 22 355 4.8 19.3 0.00 0.00 0.00 48 1018.6
20260506180546 22 9 4.8 19.3 0.00 0.00 0.00 50 1018.8
20260506180048 21 123 0.0 11.3 0.00 0.00 0.00 50 1018.7
20260506175545 22 121 6.4 9.7 0.00 0.00 0.00 49 1018.7
20260506175044 22 12 4.8 9.7 0.00 0.00 0.00 50 1018.8
20260506174543 22 32 4.8 9.7 0.00 0.00 0.00 49 1018.9
20260506174043 21 15 3.2 12.9 0.00 0.00 0.00 51 1018.9
20260506173541 21 327 4.8 12.9 0.00 0.00 0.00 51 1018.9
20260506173115 21 39 3.2 12.9 0.00 0.00 0.00 50 1018.9
20260506172541 21 321 3.2 12.9 0.00 0.00 0.00 51 1018.9
20260506172040 21 360 4.8 22.5 0.00 0.00 0.00 52 1018.9
20260506171539 21 28 4.8 22.5 0.00 0.00 0.00 52 1018.9
20260506171040 21 18 8.0 19.3 0.00 0.00 0.00 55 1018.9
20260506170540 20 311 4.8 16.1 0.00 0.00 0.00 54 1019.0
20260506170040 20 5 9.7 16.1 0.00 0.00 0.00 55 1018.9
20260506165534 20 109 4.8 14.5 0.00 0.00 0.00 57 1018.9
20260506165032 20 319 8.0 14.5 0.00 0.00 0.00 58 1018.8
20260506164533 19 350 4.8 12.9 0.00 0.00 0.00 59 1018.8
20260506164030 19 327 4.8 16.1 0.00 0.00 0.00 61 1018.8
20260506163534 18 300 8.0 16.1 0.00 0.00 0.00 60 1018.9
20260506163034 18 328 4.8 9.7 0.00 0.00 0.00 61 1018.9
20260506162526 18 5 0.0 12.9 0.00 0.00 0.00 63 1018.9
20260506162033 18 336 4.8 12.9 0.00 0.00 0.00 62 1019.0
20260506161526 18 19 6.4 14.5 0.00 0.00 0.00 64 1019.1
20260506161024 17 5 4.8 14.5 0.00 0.00 0.00 65 1019.1
20260506160524 17 333 4.8 12.9 0.00 0.00 0.00 66 1019.1
20260506160022 17 340 6.4 12.9 0.00 0.00 0.00 68 1019.1
20260506155520 17 48 3.2 14.5 0.00 0.00 0.00 69 1019.1
20260506155019 16 348 4.8 12.9 0.00 0.00 0.00 72 1019.1
20260506154517 16 343 6.4 14.5 0.00 0.00 0.00 73 1019.2
20260506154019 16 336 8.0 14.5 0.00 0.00 0.00 75 1019.3
20260506153514 15 315 4.8 9.7 0.00 0.00 0.00 78 1019.3
20260506153013 15 5 1.6 9.7 0.00 0.00 0.00 81 1019.3
20260506152512 14 322 3.2 6.4 0.00 0.00 0.00 85 1019.4
20260506152010 13 11 3.2 6.4 0.00 0.00 0.00 88 1019.5
20260506151509 12 15 0.0 4.8 0.00 0.00 0.00 91 1019.5
20260506151007 12 32 0.0 3.2 0.00 0.00 0.00 93 1019.4
20260506150506 11 85 0.0 3.2 0.00 0.00 0.00 94 1019.5
20260506150005 10 127 0.0 3.2 0.00 0.00 0.00 94 1019.5
20260506145502 10 127 0.0 3.2 0.00 0.00 0.00 94 1019.6
20260506145002 10 127 0.0 3.2 0.00 0.00 0.00 95 1019.5
20260506144600 10 127 0.0 3.2 0.00 0.00 0.00 95 1019.5
20260506144059 9 99 0.0 1.6 0.00 0.00 0.00 96 1019.6
20260506143558 8 99 0.0 3.2 0.00 0.00 0.00 96 1019.6
20260506143057 8 99 0.0 3.2 0.00 0.00 0.00 96 1019.5
20260506142556 8 99 0.0 3.2 0.00 0.00 0.00 96 1019.5
20260506142059 7 99 0.0 3.2 0.00 0.00 0.00 96 1019.5
20260506141555 7 116 0.0 3.2 0.00 0.00 0.00 95 1019.3
20260506141054 7 116 0.0 3.2 0.00 0.00 0.00 96 1019.3
20260506140554 6 116 0.0 3.2 0.00 0.00 0.00 96 1019.3
20260506140052 6 116 0.0 3.2 0.00 0.00 0.00 96 1019.2
20260506135550 6 116 0.0 3.2 0.00 0.00 0.00 95 1019.3
20260506135049 6 116 0.0 3.2 0.00 0.00 0.00 95 1019.2
20260506134549 6 74 0.0 3.2 0.00 0.00 0.00 95 1019.1
20260506134048 5 42 0.0 1.6 0.00 0.00 0.00 95 1019.2
20260506133548 5 42 0.0 1.6 0.00 0.00 0.00 95 1019.2
20260506133047 5 117 0.0 3.2 0.00 0.00 0.00 95 1019.2
20260506132545 5 117 0.0 3.2 0.00 0.00 0.00 95 1019.2
20260506132045 5 350 0.0 3.2 0.00 0.00 0.00 95 1019.0
20260506131551 5 316 0.0 3.2 0.00 0.00 0.00 95 1019.0
20260506131043 5 316 0.0 4.8 0.00 0.00 0.00 95 1019.0
20260506130542 5 317 0.0 4.8 0.00 0.00 0.00 94 1018.9
20260506130058 5 300 0.0 0.0 0.00 0.00 0.00 94 1019.0
20260506125539 5 300 0.0 0.0 0.00 0.00 0.00 95 1018.9
20260506125039 5 300 0.0 0.0 0.00 0.00 0.00 94 1018.9
20260506124538 5 300 0.0 0.0 0.00 0.00 0.00 94 1018.8
20260506124038 5 300 0.0 0.0 0.00 0.00 0.00 94 1018.9
20260506123538 5 300 0.0 0.0 0.00 0.00 0.00 94 1019.0
20260506123040 5 300 0.0 0.0 0.00 0.00 0.00 94 1018.9
20260506122540 6 300 0.0 0.0 0.00 0.00 0.00 94 1019.0
20260506122037 6 300 0.0 0.0 0.00 0.00 0.00 94 1019.0
20260506121536 6 300 0.0 0.0 0.00 0.00 0.00 94 1019.0
20260506121036 6 300 0.0 0.0 0.00 0.00 0.00 94 1019.0
20260506120536 6 300 0.0 0.0 0.00 0.00 0.00 94 1018.9
20260506120036 6 300 0.0 0.0 0.00 0.00 0.00 94 1019.0
20260506115535 6 300 0.0 0.0 0.00 0.00 0.00 94 1019.0
20260506115034 6 300 0.0 0.0 0.00 0.00 0.00 94 1018.9
20260506114538 6 300 0.0 0.0 0.00 0.00 0.00 94 1018.9
20260506114034 6 300 0.0 0.0 0.00 0.00 0.00 94 1018.9
20260506113533 6 300 0.0 0.0 0.00 0.00 0.00 94 1019.0
20260506113037 6 300 0.0 0.0 0.00 0.00 0.00 94 1018.9
20260506112531 6 300 0.0 0.0 0.00 0.00 0.00 94 1018.9
20260506112035 6 300 0.0 0.0 0.00 0.00 0.00 94 1018.9
20260506111531 6 300 0.0 0.0 0.00 0.00 0.00 94 1018.8
20260506111030 6 300 0.0 0.0 0.00 0.00 0.00 94 1018.9
20260506110531 6 300 0.0 0.0 0.00 0.00 0.00 94 1018.8
20260506110030 6 300 0.0 0.0 0.00 0.00 0.00 94 1018.8
20260506105528 6 300 0.0 0.0 0.00 0.00 0.00 94 1018.9
20260506105031 7 300 0.0 0.0 0.00 0.00 0.00 94 1018.8
20260506104529 7 300 0.0 0.0 0.00 0.00 0.00 94 1018.8
20260506104026 7 300 0.0 0.0 0.00 0.00 0.00 94 1018.7
20260506103526 7 300 0.0 0.0 0.00 0.00 0.00 94 1018.8
20260506103033 7 300 0.0 0.0 0.00 0.00 0.00 94 1018.8
20260506102525 7 300 0.0 0.0 0.00 0.00 0.00 93 1018.8
20260506102024 7 300 0.0 0.0 0.00 0.00 0.00 94 1018.8
20260506101539 7 300 0.0 0.0 0.00 0.00 0.00 93 1018.8
20260506101024 7 268 0.0 0.0 0.00 0.00 0.00 94 1018.8
20260506100524 7 268 0.0 0.0 0.00 0.00 0.00 94 1018.8
20260506100024 7 268 0.0 0.0 0.00 0.00 0.00 94 1018.8